Regional Weather Roundup
Issued by NWS Sioux Falls, SD

Home | Current Version | Previous Version | Graphics & Text | Print | Product List | Glossary Off
Versions: 1 2 3 4 5 6 7 8 9 10 11 12 13 14 15 16 17 18 19 20 21 22 23 24 25 26 27 28 29 30 31 32 33 34 35 36 37 38 39 40 41 42 43 44 45 46 47 48 49 50

000
ASUS43 KFSD 300310
RWRFSD

WEATHER ROUNDUP FOR SE SOUTH DAKOTA/SW MINNESOTA/NW IOWA
NATIONAL WEATHER SERVICE SIOUX FALLS SD
1000 PM CDT WED MAR 29 2017

NOTE: "FAIR" INDICATES FEW OR NO CLOUDS BELOW 12,000 FEET WITH NO
SIGNIFICANT WEATHER AND OR OBSTRUCTIONS TO VISIBILITY.


SDZ038>040-050-052>070-300400-
SOUTHEAST SOUTH DAKOTA

CITY           SKY/WX    TMP DP  RH WIND       PRES   REMARKS
BROOKINGS      CLOUDY    40  35  83 E10       30.05S
CHAMBERLAIN    CLOUDY    45  38  76 E9        30.02F
HURON          CLOUDY    44  36  73 SE12      30.05S
MADISON        CLOUDY    39  39 100 E13       30.04S
MITCHELL       CLOUDY    43  37  79 E14       30.05S
SIOUX FALLS    LGT RAIN  40  39  97 E15       30.02S
WINNER         CLOUDY    45  37  73 E12       30.00S
YANKTON        CLOUDY    39  36  87 NE12      29.99F
$$

MNZ071-072-080-081-089-090-097-098-300400-
SOUTHWEST MINNESOTA

CITY           SKY/WX    TMP DP  RH WIND       PRES   REMARKS
FAIRMONT       LGT RAIN  40  37  89 E21       30.02F
JACKSON        LGT RAIN  36  36 100 E14G21    30.02S
LUVERNE        DRIZZLE   36  34  93 E16       30.02S
MARSHALL       CLOUDY    40  37  89 SE12      30.08R
MONTEVIDEO     CLOUDY    41  37  87 S8        30.10S
PIPESTONE      CLOUDY    37  34  87 E14       30.02S
REDWOOD FALLS  CLOUDY    41  37  86 E10G22    30.08S
TRACY          DRIZZLE   39  37  93 E10       30.06S
WINDOM         LGT RAIN  37  37 100 E15       30.03F
WORTHINGTON    MIX PCPN  37  35  92 E16       30.01S
$$

IAZ001>003-012>014-020>022-031-032-NEZ013-014-SDZ071-300400-
NORTHWEST IOWA

CITY           SKY/WX    TMP DP  RH WIND       PRES   REMARKS
CHEROKEE       CLOUDY    39  38  93 E24G37    29.94F
DENISON        CLOUDY    39  39 100 NE20G35   29.86F
ESTHERVILLE    CLOUDY    38  38 100 E20       29.99S
LE MARS        CLOUDY    41  37  87 E14G23    29.95F
ORANGE CITY    CLOUDY    39  37  93 E16G23    29.94F
SHELDON        CLOUDY    39  37  93 E24G30    29.95F
SIOUX CITY     CLOUDY    41  38  89 E21G33    29.90S
SPENCER        CLOUDY    40  37  89 E23G30    29.97S
STORM LAKE     MIX PCPN  37  37 100 E30G38    29.92F
$$

ABBREVIATIONS USED IN REMARKS
   TC - TEMPERATURE IN CELSIUS
  WCI - WIND CHILL INDEX
   HX - HEAT INDEX
  VSB - VISIBILITY





USA.gov is the U.S. government's official web portal to all federal, state and local government web resources and services.